Weather observations for the past three days for
Morris, Morris Municipal Airport
Metric (Imperial)
Date Time (cdt) Wind (kph) Vis. (km) Weather Sky Cond. Temperature (ºC) Relative Humidity Wind Chill (°C) Heat Index (°C) Pressure Precipitation (cm)
Air Dwpt 6 hour altimeter (cm) sea level (mb) 1 hr 3 hr 6 hr
Max. Min.
04 11:15 NW 41 G 61 16.09 A Few Clouds and Breezy FEW041 12 -1 41% 75.11 0.0
04 10:55 NW 39 G 61 16.09 A Few Clouds and Breezy FEW039 12 0 44% 75.11 0.0
04 10:35 NW 44 G 61 16.09 A Few Clouds and Windy FEW037 11 0 47% 75.08 0.0
04 10:15 NW 39 G 57 16.09 Fair and Breezy CLR 11 0 47% 75.08 0.0
04 09:55 NW 43 G 57 16.09 A Few Clouds and Windy FEW120 10 0 50% 6 75.08 0.0
04 09:35 NW 50 G 63 16.09 Partly Cloudy and Windy SCT120 11 0 47% 75.06 0.0
04 09:15 NW 44 G 59 16.09 Partly Cloudy and Windy SCT120 11 0 47% 75.01 0.0
04 08:55 NW 41 G 59 16.09 A Few Clouds and Breezy FEW120 11 1 50% 74.98 0.0
04 08:35 NW 41 G 59 16.09 Fair and Breezy CLR 11 1 50% 74.98 0.0
04 08:15 NW 39 G 50 16.09 Fair and Breezy CLR 11 3 58% 74.96 0.0
04 07:55 NW 37 G 59 16.09 Fair and Breezy CLR 11 2 54% 74.96 0.0
04 07:35 W 28 G 39 16.09 Fair CLR 10 4 67% 7 74.96 0.0
04 07:15 W 24 16.09 Fair CLR 10 4 67% 7 74.93 0.0
04 06:55 W 20 16.09 Fair CLR 9 4 71% 6 74.9 0.0
04 06:35 W 19 16.09 Fair CLR 9 4 71% 7 74.88 0.0
04 06:15 NW 20 16.09 Fair CLR 9 4 71% 6 74.85 0.0
04 05:55 NW 19 16.09 Fair CLR 9 3 66% 7 74.83 0.0
04 05:35 NW 15 16.09 Fair CLR 10 3 62% 8 74.8 0.0
04 05:15 NW 20 16.09 A Few Clouds FEW044 10 3 62% 8 74.8 0.0
04 04:55 NW 22 16.09 Fair CLR 11 3 58% 74.78 0.0
04 04:35 N 30 G 43 16.09 Fair CLR 11 3 58% 74.78 0.0
04 04:15 N 43 16.09 A Few Clouds and Windy FEW120 13 3 51% 74.78 0.0
04 03:55 W 37 G 48 16.09 Overcast and Breezy FEW050 SCT080 OVC110 16 3 42% 74.7 0.0
04 03:35 W 30 G 43 16.09 Mostly Cloudy FEW075 SCT090 BKN120 16 2 39% 74.73 0.0
04 03:15 SW 30 G 41 16.09 Mostly Cloudy BKN120 15 2 42% 74.6 0.0
04 02:55 SW 28 G 41 16.09 Partly Cloudy SCT110 15 2 42% 74.63 0.0
04 02:35 SW 31 G 43 16.09 Fair CLR 14 1 41% 74.65 0.0
04 02:15 SW 28 G 39 16.09 Fair CLR 14 1 41% 74.7 0.0
04 01:55 SW 30 G 39 16.09 Fair CLR 14 1 41% 74.7 0.0
04 01:35 SW 31 16.09 Fair CLR 13 0 41% 74.73 0.0
04 01:15 SW 31 16.09 Fair CLR 13 0 41% 74.78 0.0
04 00:55 SW 33 16.09 Fair and Breezy CLR 14 0 39% 74.83 0.0
04 00:35 SW 30 16.09 Fair CLR 13 0 41% 74.85 0.0
04 00:15 SW 30 16.09 Fair CLR 13 0 41% 74.88 0.0
03 23:55 SW 28 16.09 Fair CLR 13 0 41% 74.9 0.0
03 23:35 SW 28 16.09 Fair CLR 13 0 41% 74.93 0.0
03 23:15 SW 28 16.09 Fair CLR 13 0 41% 74.98 0.0
03 22:55 SW 26 16.09 Fair CLR 13 0 41% 75.01 0.0
03 22:35 SW 22 16.09 Fair CLR 12 1 47% 75.03 0.0
03 22:15 SW 19 16.09 Fair CLR 12 1 47% 75.08 0.0
03 21:55 S 19 16.09 Fair CLR 13 0 41% 75.11 0.0
03 21:35 SW 17 16.09 Fair CLR 14 1 41% 75.11 0.0
03 21:15 SW 19 16.09 Fair CLR 15 1 39% 75.13 0.0
03 20:55 SW 17 16.09 Fair CLR 16 1 36% 75.16 0.0
03 20:35 SW 15 16.09 Fair CLR 16 0 34% 75.18 0.0
03 20:15 W 13 16.09 Fair CLR 17 0 32% 75.21 0.0
03 19:55 W 13 16.09 Fair CLR 19 0 28% 75.23 0.0
03 19:35 W 13 G 31 16.09 Fair CLR 20 0 26% 75.23 0.0
03 19:15 W 26 16.09 Fair CLR 20 -1 24% 75.26 0.0
03 18:55 W 30 16.09 Fair CLR 20 -1 24% 75.29 0.0
03 18:35 W 28 16.09 Fair CLR 20 0 26% 75.29 0.0
03 18:15 W 26 16.09 Fair CLR 20 -1 24% 75.31 0.0
03 17:55 W 28 G 37 16.09 Fair CLR 21 -2 21% 75.31 0.0
03 17:35 W 24 16.09 Fair CLR 21 -2 21% 75.34 0.0
03 17:15 W 26 G 37 16.09 Fair CLR 21 -1 23% 75.34 0.0
03 16:55 W 26 16.09 Fair CLR 21 -2 21% 75.39 0.0
03 16:35 NW 24 G 41 16.09 Fair CLR 21 -1 23% 75.39 0.0
03 16:15 NW 28 16.09 Fair CLR 21 -1 23% 75.44 0.0
03 15:55 W 24 G 41 16.09 Fair CLR 20 0 26% 75.46 0.0
03 15:35 NW 19 G 28 16.09 Fair CLR 21 -1 23% 75.46 0.0
03 15:15 NW 26 G 37 16.09 Fair CLR 21 1 27% 75.51 0.0
03 14:55 NW 22 G 33 16.09 Fair CLR 20 -1 24% 75.54 0.0
03 14:35 W 20 G 35 16.09 Fair CLR 20 0 26% 75.57 0.0
03 14:15 NW 22 16.09 Fair CLR 19 0 28% 75.59 0.0
03 13:55 W 20 G 31 16.09 Fair CLR 19 0 28% 75.59 0.0
03 13:35 NW 19 G 39 16.09 Fair CLR 19 -1 26% 75.62 0.0
03 13:15 NW 17 G 46 16.09 Fair CLR 19 -1 26% 75.67 0.0
03 12:55 NW 20 G 41 16.09 Fair CLR 18 0 30% 75.67 0.0
03 12:35 NW 31 G 43 16.09 Fair CLR 18 0 30% 75.69 0.0
03 12:15 N 26 G 43 16.09 Fair CLR 18 1 32% 75.69 0.0
03 11:55 N 33 G 44 16.09 Fair and Breezy CLR 18 0 30% 75.69 0.0
03 11:35 NW 24 G 35 16.09 Fair CLR 17 0 32% 75.72 0.0
03 11:15 NW 26 16.09 Fair CLR 16 -1 31% 75.72 0.0
03 10:55 NW 22 G 37 16.09 Fair CLR 16 0 34% 75.72 0.0
03 10:35 NW 26 G 37 16.09 Fair CLR 15 1 39% 75.72 0.0
03 10:15 NW 24 G 35 16.09 Fair CLR 14 2 44% 75.72 0.0
03 09:55 NW 24 16.09 Fair CLR 13 2 47% 75.74 0.0
03 09:35 NW 24 16.09 Fair CLR 12 2 51% 75.74 0.0
03 09:15 NW 22 16.09 Fair CLR 11 3 58% 75.74 0.0
03 08:55 NW 26 16.09 Fair CLR 10 3 62% 7 75.74 0.0
03 08:35 NW 26 16.09 Fair CLR 9 3 66% 6 75.72 0.0
03 08:15 NW 24 16.09 Fair CLR 8 3 71% 5 75.69 0.0
03 07:55 NW 28 16.09 Fair CLR 7 3 76% 3 75.67 0.0
03 07:35 NW 26 16.09 Fair CLR 7 3 76% 3 75.67 0.0
03 07:15 NW 28 16.09 Fair CLR 6 3 81% 2 75.64 0.0
03 06:55 NW 20 16.09 Fair CLR 6 3 81% 3 75.62 0.0
03 06:35 NW 17 16.09 Fair CLR 5 3 87% 2 75.62 0.0
03 06:15 NW 20 16.09 Fair CLR 5 3 87% 1 75.59 0.0
03 05:55 NW 20 16.09 Fair CLR 6 3 81% 3 75.59 0.0
03 05:35 NW 22 16.09 Fair CLR 6 4 87% 2 75.57 0.0
03 05:15 NW 22 16.09 Fair CLR 6 3 81% 2 75.54 0.0
03 04:55 NW 20 16.09 Fair CLR 6 3 81% 3 75.54 0.0
03 04:35 NW 22 16.09 Fair CLR 6 3 81% 2 75.54 0.0
03 04:15 NW 22 16.09 Fair CLR 7 3 76% 4 75.51 0.0
03 03:55 NW 22 16.09 Fair CLR 7 3 76% 4 75.49 0.0
03 03:35 NW 22 16.09 Fair CLR 7 3 76% 4 75.49 0.0
03 03:15 NW 24 16.09 Fair CLR 7 3 76% 4 75.46 0.0
03 02:55 NW 24 16.09 Fair CLR 8 3 71% 5 75.46 0.0
03 02:35 NW 22 16.09 Fair CLR 8 3 71% 5 75.44 0.0
03 02:15 NW 19 16.09 Fair CLR 8 3 71% 5 75.44 0.0
03 01:55 NW 17 16.09 Fair CLR 9 3 66% 7 75.41 0.0
03 01:35 NW 22 16.09 Fair CLR 10 3 62% 7 75.41 0.0
03 01:15 NW 20 16.09 Fair CLR 9 3 66% 6 75.39 0.0
03 00:55 NW 20 16.09 Fair CLR 10 4 67% 8 75.39 0.0
03 00:35 NW 15 16.09 Fair CLR 10 4 67% 8 75.39 0.0
03 00:15 SW 9 16.09 Fair CLR 10 3 62% 9 75.36 0.0
02 23:55 S 9 16.09 Fair CLR 10 3 62% 9 75.36 0.0
02 23:35 S 13 16.09 Fair CLR 10 4 67% 8 75.36 0.0
02 23:15 S 17 16.09 Fair CLR 12 3 54% 75.36 0.0
02 22:55 S 13 16.09 Fair CLR 12 3 54% 75.39 0.0
02 22:35 S 15 16.09 Fair CLR 13 4 55% 75.39 0.0
02 22:15 S 22 16.09 A Few Clouds FEW095 12 4 58% 75.39 0.0
02 21:55 S 20 16.09 Light Rain FEW046 SCT075 BKN095 13 5 59% 75.41 0.0
02 21:35 SW 19 16.09 Mostly Cloudy FEW050 SCT065 BKN075 15 4 48% 75.44 0.0
02 21:15 SW 22 16.09 Mostly Cloudy FEW035 SCT060 BKN075 15 4 48% 75.41 0.0
02 20:55 S 30 16.09 Mostly Cloudy FEW022 SCT042 BKN065 16 4 45% 75.46 0.0
02 20:35 S 28 G 37 12.87 Light Rain FEW060 BKN075 BKN090 16 2 39% 75.46 0.0
02 20:15 S 26 16.09 A Few Clouds FEW110 16 0 34% 75.46 0.0
02 19:55 S 20 G 33 16.09 Partly Cloudy FEW065 SCT075 SCT090 17 0 32% 75.49 0.0
02 19:35 S 22 16.09 Overcast FEW065 BKN080 OVC090 18 0 30% 75.51 0.0
02 19:15 S 19 16.09 Mostly Cloudy FEW060 SCT070 BKN085 18 -1 28% 75.57 0.0
02 18:55 S 19 16.09 Partly Cloudy FEW060 SCT080 SCT095 19 -1 26% 75.59 0.0
02 18:35 SW 19 16.09 A Few Clouds FEW070 FEW090 19 -1 26% 75.64 0.0
02 18:15 SW 19 16.09 Mostly Cloudy FEW075 SCT085 BKN100 19 -1 26% 75.67 0.0
02 17:55 SW 24 G 35 16.09 A Few Clouds FEW080 19 -2 24% 75.69 0.0
02 17:35 SW 26 16.09 Fair CLR 19 -2 24% 75.69 0.0
02 17:15 SW 22 16.09 A Few Clouds FEW070 FEW075 FEW085 19 -2 24% 75.72 0.0
02 16:55 W 28 16.09 Fair CLR 19 -2 24% 75.74 0.0
02 16:35 W 22 G 35 16.09 A Few Clouds FEW100 19 -2 24% 75.77 0.0
02 16:15 SW 28 G 41 16.09 Partly Cloudy SCT100 20 -2 23% 75.77 0.0
02 15:55 W 30 G 43 16.09 A Few Clouds FEW110 19 -2 24% 75.79 0.0
02 15:35 W 26 G 43 16.09 Partly Cloudy SCT110 20 -2 23% 75.79 0.0
02 15:15 W 28 G 44 16.09 Fair CLR 20 -2 23% 75.82 0.0
02 14:55 W 31 G 41 16.09 A Few Clouds FEW090 21 -1 23% 75.84 0.0
02 14:35 W 22 G 43 16.09 Fair CLR 20 -2 23% 75.87 0.0
02 14:15 W 26 G 43 14.48 Fair CLR 20 -2 23% 75.9 0.0
02 13:55 W 35 G 48 16.09 Fair and Breezy CLR 20 -2 23% 75.9 0.0
02 13:35 W 33 G 44 16.09 Fair and Breezy CLR 20 -1 24% 75.92 0.0
02 13:15 W 30 G 39 16.09 Fair CLR 20 0 26% 75.95 0.0
02 12:55 W 26 G 37 16.09 Fair CLR 20 0 26% 75.97 0.0
02 12:35 W 28 G 37 16.09 Fair CLR 19 1 30% 76 0.0
02 12:15 W 24 G 35 16.09 Fair CLR 19 1 30% 76.02 0.0
02 11:55 W 24 G 35 16.09 Fair CLR 18 1 32% 76.05 0.0
02 11:35 W 24 G 35 16.09 Fair CLR 18 1 32% 76.05 0.0
02 11:15 SW 28 G 41 16.09 Fair CLR 17 1 34% 76.07 0.0
02 10:55 SW 26 16.09 Fair CLR 16 0 34% 76.1 0.0
02 10:35 SW 24 16.09 Fair CLR 15 1 39% 76.12 0.0
02 10:15 SW 26 16.09 Fair CLR 14 1 41% 76.15 0.0
02 09:55 SW 22 16.09 Fair CLR 13 0 41% 76.15 0.0
02 09:35 SW 22 16.09 Fair CLR 12 0 44% 76.17 0.0
02 09:15 SW 22 G 33 16.09 Fair CLR 11 -1 44% 76.23 0.0
02 08:55 SW 22 16.09 Fair CLR 10 -1 47% 7 76.25 0.0
02 08:35 SW 15 16.09 Fair CLR 8 0 57% 6 76.25 0.0
02 08:15 SW 17 16.09 Fair CLR 6 0 66% 3 76.28 0.0
02 07:55 S 9 16.09 Fair CLR 5 0 70% 3 76.28 0.0
02 07:35 S 13 16.09 Fair CLR 4 0 75% 1 76.28 0.0
02 07:15 S 13 16.09 Fair CLR 2 -1 81% -1 76.28 0.0
02 06:55 S 13 16.09 Fair CLR 1 -2 81% -2 76.3 0.0
02 06:35 S 13 16.09 Fair CLR 1 -3 75% -2 76.3 0.0
02 06:15 S 9 16.09 A Few Clouds FEW090 1 -2 81% -2 76.3 0.0
02 05:55 S 7 16.09 Partly Cloudy SCT090 3 -3 65% 1 76.3 0.0
02 05:35 SW 13 16.09 Mostly Cloudy BKN090 4 -3 61% 1 76.33 0.0
02 05:15 SW 15 16.09 Mostly Cloudy BKN090 4 -3 61% 1 76.33 0.0
02 04:55 SW 15 16.09 Mostly Cloudy BKN090 4 -3 61% 1 76.33 0.0
02 04:35 SW 15 16.09 Partly Cloudy SCT085 4 -3 61% 1 76.33 0.0
02 04:15 SW 15 16.09 Partly Cloudy SCT032 4 -3 61% 1 76.35 0.0
02 03:55 SW 17 16.09 Mostly Cloudy BKN033 3 -3 65% -1 76.35 0.0
02 03:35 SW 15 16.09 Fair CLR 2 -3 70% -2 76.35 0.0
02 03:15 SW 13 16.09 A Few Clouds FEW037 2 -2 75% -1 76.35 0.0
02 02:55 SW 11 16.09 A Few Clouds FEW040 3 -2 70% 0 76.35 0.0
02 02:35 SW 13 16.09 Fair CLR 3 -2 70% 0 76.35 0.0
02 02:15 SW 13 16.09 Fair CLR 3 -2 70% 0 76.38 0.0
02 01:55 SW 13 16.09 Fair CLR 4 -3 61% 1 76.38 0.0
02 01:35 SW 9 16.09 Fair CLR 3 -4 60% 1 76.4 0.0
02 01:15 SW 7 16.09 Fair CLR 3 -3 65% 1 76.4 0.0
02 00:55 SW 7 16.09 Fair CLR 4 -2 65% 2 76.4 0.0
02 00:35 SW 9 16.09 Fair CLR 4 -2 65% 2 76.4 0.0
02 00:15 SW 7 16.09 Fair CLR 3 -3 65% 1 76.4 0.0
01 23:55 W 9 16.09 Fair CLR 4 -2 65% 2 76.4 0.0
01 23:35 W 7 16.09 Fair CLR 5 -2 61% 4 76.43 0.0
01 23:15 W 7 16.09 Fair CLR 4 -2 65% 2 76.43 0.0
01 22:55 W 9 16.09 Fair CLR 4 -2 65% 2 76.43 0.0
01 22:35 W 7 16.09 Fair CLR 4 -2 65% 2 76.43 0.0
01 22:15 W 11 16.09 Fair CLR 5 -2 61% 3 76.43 0.0
01 21:55 Vrbl 6 16.09 Fair CLR 7 -4 46% 76.4 0.0
01 21:35 NW 6 16.09 Fair CLR 7 -4 46% 76.4 0.0
01 21:15 W 7 16.09 Fair CLR 8 -5 40% 7 76.4 0.0
01 20:55 N 6 16.09 Fair CLR 8 -5 40% 76.4 0.0
01 20:35 N 7 16.09 Fair CLR 9 -5 37% 8 76.38 0.0
01 20:15 NW 11 16.09 Fair CLR 10 -5 35% 9 76.38 0.0
01 19:55 NW 13 16.09 Fair CLR 11 -6 30% 76.38 0.0
01 19:35 NW 17 16.09 Fair CLR 11 -6 30% 76.38 0.0
01 19:15 N 15 G 24 16.09 Fair CLR 11 -6 30% 76.35 0.0
01 18:55 NW 13 G 26 16.09 Fair CLR 12 -5 30% 76.35 0.0
01 18:35 NW 13 G 28 16.09 Fair CLR 12 -6 28% 76.38 0.0
01 18:15 NW 19 16.09 A Few Clouds FEW070 12 -5 30% 76.35 0.0
01 17:55 NW 19 G 31 16.09 Fair CLR 12 -5 30% 76.38 0.0
01 17:35 NW 15 G 28 16.09 Partly Cloudy SCT065 12 -5 30% 76.38 0.0
01 17:15 W 17 G 30 16.09 Partly Cloudy SCT065 12 -5 30% 76.38 0.0
01 16:55 NW 15 G 26 16.09 Mostly Cloudy BKN065 12 -5 30% 76.38 0.0
01 16:35 NW 13 G 24 16.09 Mostly Cloudy BKN065 12 -5 30% 76.38 0.0
01 16:15 W 19 16.09 Mostly Cloudy BKN065 12 -4 33% 76.38 0.0
01 15:55 Vrbl 11 G 26 16.09 Partly Cloudy SCT065 12 -5 30% 76.4 0.0
01 15:40 NW 22 G 33 16.09 Partly Cloudy SCT065 12 -4 33% 76.4 0.0
01 15:15 NW 17 G 28 16.09 Mostly Cloudy BKN065 12 -4 33% 76.43 0.0
01 14:55 Vrbl 11 G 24 16.09 Partly Cloudy SCT065 11 -5 32% 76.43 0.0
01 14:35 NW 17 16.09 Partly Cloudy SCT065 11 -5 32% 76.43 0.0
01 14:15 Vrbl 9 G 26 16.09 A Few Clouds FEW060 11 -5 32% 76.43 0.0
01 13:55 N 17 G 33 16.09 Fair CLR 11 -4 35% 76.43 0.0
01 13:35 NW 17 16.09 Partly Cloudy SCT055 10 -4 37% 8 76.45 0.0
01 13:15 Vrbl 11 G 35 16.09 Partly Cloudy SCT055 10 -4 37% 9 76.45 0.0
01 12:55 N 20 16.09 Partly Cloudy SCT050 10 -3 40% 8 76.45 0.0
01 12:35 N 13 G 28 16.09 Partly Cloudy SCT050 9 -3 43% 7 76.48 0.0
01 12:15 N 19 16.09 Mostly Cloudy SCT050 BKN055 9 -4 40% 7 76.48 0.0
01 11:55 N 19 16.09 A Few Clouds FEW050 9 -2 46% 7 76.48 0.0
01 11:35 N 19 16.09 Mostly Cloudy BKN049 8 -3 46% 5 76.48 0.0
Date Time (cdt) Wind (kph) Vis. (km) Weather Sky Cond. Air Dwpt Max. Min. Relative Humidity Wind Chill (°C) Heat Index (°C) altimeter (cm) sea level (mb) 1 hr 3 hr 6 hr
6 hour
Temperature (ºC) Pressure Precipitation (cm)